Tracking 32139 objects as of 19-Nov-2025
HD Live streaming from Space Station
objects crossing your sky now

STARLINK-30544

Track STARLINK-30544 now!
10-day predictions
STARLINK-30544 is classified as:


NORAD ID: 58055
Int'l Code: 2023-158E
Perigee: 564.7 km
Apogee: 567.6 km
Inclination: 43.0 °
Period: 95.8 minutes
Semi major axis: 6937 km
RCS: Unknown
Launch date: October 13, 2023
Source: United States (US)
Launch site: AIR FORCE EASTERN TEST RANGE (AFETR)
Your satellite tracking list
Your tracking list is empty




NASA's NSSDC Master Catalog

Two Line Element Set (TLE):
1 58055U 23158E   25322.94855652 -.00007560  00000-0 -54480-3 0  9994
2 58055  43.0056 272.0138 0002069 274.5349  85.5257 15.02560530116879
Source of the keplerian elements: AFSPC